Home   Weather   Lewiston   Past weeks

Flag for USA Past Weather in Lewiston, Idaho, USA — Yesterday and Last 2 Weeks

Now
59 °F

Partly sunny.


Feels Like: 58 °F
Forecast: 49 / 79 °F
Wind: 6 mph from North

Location: Lewiston-Nez Perce County Airport

Current Time: Sep 25, 2016 at 10:35:03 AM

Latest Report: Sep 25, 2016 at 9:56 AM


Visibility: 10 mi

Pressure: 30.45 "Hg

Humidity: 51%

Dew Point: 41 °F

Location of LewistonLocation

Past Weather in Lewiston — Graph

°F

Lewiston Temperature Yesterday

Maximum temperature yesterday: 71 °F (at 3:56 PM)
Minimum temperature yesterday: 51 °F (at 5:56 AM)
Average temperature yesterday: 60 °F

High & Low Weather Summary for the Past Weeks

 TemperatureHumidityPressure
High86 °F (Sep 10, 4:56 PM)90% (Sep 18, 2:56 AM)30.44 "Hg (Sep 18, 2:56 AM)
Low43 °F (Sep 13, 4:56 AM)14% (Sep 10, 4:56 PM)29.83 "Hg (Sep 22, 12:56 AM)
Average62 °F46%30.02 "Hg
* Reported Sep 10 8:56 AM — Sep 25 8:56 AM, Lewiston, Weather by CustomWeather, © 2016

Note: Actual official high and low records may vary slightly from our data, if they occured in-between our weather recording intervals... More about our weather records

Advertising

Lewiston Weather History for the Previous 24 Hours

Scroll right to see more
 ConditionsComfort  
Time TempWeatherWind HumidityBarometerVisibility
8:56 AM
Sun, Sep 25
57 °FSunny.7 mph55%30.44 "Hg10 mi
7:56 AM53 °FSunny.6 mph61%30.43 "Hg10 mi
6:56 AM50 °FSunny.3 mph66%30.43 "Hg10 mi
5:56 AM52 °FPassing clouds.3 mph61%30.41 "Hg10 mi
4:56 AM53 °FPassing clouds.6 mph59%30.40 "Hg10 mi
3:56 AM51 °FPassing clouds.No wind63%30.40 "Hg10 mi
2:56 AM52 °FClear.5 mph59%30.41 "Hg10 mi
1:56 AM52 °FClear.No wind57%30.40 "Hg10 mi
12:56 AM50 °FClear.5 mph59%30.39 "Hg10 mi
11:56 PM
Sat, Sep 24
52 °FClear.5 mph55%30.37 "Hg10 mi
10:56 PM55 °FClear.No wind49%30.37 "Hg10 mi
9:56 PM57 °FClear.5 mph46%30.35 "Hg10 mi
8:56 PM58 °FClear.6 mph46%30.34 "Hg10 mi
7:56 PM63 °FClear.No wind38%30.32 "Hg10 mi
6:56 PM65 °FClear.7 mph36%30.30 "Hg10 mi
5:56 PM69 °FSunny.3 mph31%30.28 "Hg10 mi
4:56 PM70 °FSunny.5 mph30%30.28 "Hg10 mi
3:56 PM71 °FSunny.5 mph29%30.29 "Hg10 mi
2:56 PM70 °FSunny.5 mph31%30.30 "Hg10 mi
1:56 PM70 °FSunny.8 mph31%30.30 "Hg10 mi
12:56 PM69 °FPassing clouds.8 mph33%30.30 "Hg10 mi
11:56 AM65 °FSunny.5 mph40%30.31 "Hg10 mi
10:56 AM64 °FSunny.3 mph41%30.31 "Hg10 mi
Weather by CustomWeather, © 2016

See weather overviewHow to use our weather pages